Regional Weather Roundup
Issued by NWS

Home | Current Version | Previous Version | Graphics & Text | Print | Product List | Glossary On
Versions: 1 2 3 4 5 6 7 8 9 10 11 12 13 14 15 16 17 18 19 20 21 22 23 24 25 26 27 28 29 30 31 32 33 34 35 36 37 38 39 40 41 42 43 44 45 46 47 48 49 50
000
ASUS43 KFSD 222102
RWRSD

WEATHER ROUNDUP FOR SOUTH DAKOTA
NATIONAL WEATHER SERVICE SIOUX FALLS SD
400 PM CDT FRI SEP 22 2017

NOTE: "FAIR" INDICATES FEW OR NO CLOUDS BELOW 12,000 FEET WITH NO
SIGNIFICANT WEATHER AND/OR OBSTRUCTIONS TO VISIBILITY.


SDZ001>005-009-010-012>017-222200-
NORTHWEST AND NORTH CENTRAL SOUTH DAKOTA

CITY           SKY/WX    TMP DP  RH WIND       PRES   REMARKS
BUFFALO          N/A     55  35  47 N20G26    29.84F
FAITH            N/A     57  42  57 N23G31    29.83R
MOBRIDGE       CLOUDY    58  51  78 N20G28    29.72R
$$

SDZ012>016-024>037-041>051-057-063-072>074-222200-
SOUTHWEST AND SOUTH CENTRAL SOUTH DAKOTA

CITY           SKY/WX    TMP DP  RH WIND       PRES   REMARKS
RAPID CTY ARPT SUNNY     61  39  44 N31G37    29.86R
PIERRE         CLOUDY    66  52  60 W21       29.75R
CUSTER         SUNNY     66  41  40 SW9G16    29.89S
ELLSWORTH AFB  SUNNY     60  39  46 N26G33    29.86R
PHILIP         CLOUDY    64  44  48 NW21G30   29.81R
PINE RIDGE     SUNNY     69  44  40 N10G17    29.85R
SPEARFISH      FAIR      54  39  58 NW13G18   29.94R
WINNER         FAIR      73  53  49 W17G23    29.76R
$$

SDZ004>011-016>023-039-040-222200-
NORTHEAST SOUTH DAKOTA

CITY           SKY/WX    TMP DP  RH WIND       PRES   REMARKS
ABERDEEN       SUNNY     86  57  37 SW24G32   29.63R
WATERTOWN      SUNNY     87  70  56 S17G25    29.66F
BROOKINGS      SUNNY     89  70  53 S22G30    29.70S
SISSETON         N/A     90  70  51 S15G23    29.62F HX  95
$$

SDZ017-020-022-023-036>040-048>070-222200-
SOUTHEAST SOUTH DAKOTA

CITY           SKY/WX    TMP DP  RH WIND       PRES   REMARKS
SIOUX FALLS    MOSUNNY   91  72  53 S20G38    29.71S HX  98
HURON          SUNNY     85  56  37 W14G21    29.66R
CHAMBERLAIN    SUNNY     78  56  46 W16       29.73R
MITCHELL       SUNNY     86  59  39 W13       29.68R
YANKTON        SUNNY     94  69  44 S25       29.67F HX  99
$$

ABBREVIATIONS USED IN REMARKS
   TC - TEMPERATURE IN CELSIUS
  WCI - WIND CHILL INDEX
   HX - HEAT INDEX
  VSB - VISIBILITY





USA.gov is the U.S. government's official web portal to all federal, state and local government web resources and services.